This demonstration page uses our WeatherBlox Daily Observations layout. Learn more.

Left ArrowRight Arrow

Hourly Observations for February 4, 2020

Temp ( °F °C ) Dew Point ( °F °C ) Humidity (%) Winds ( mph kmh ) Pressure ( in mb ) Visibility ( mi km ) Precip ( " mm )
12:53 am 00:53 Cloudy 63 17.2 38 3.3 40 40 VRB 7 11 29.78 1008 10 16 N/A
1:53 am 01:53 Cloudy 62 16.7 39 3.9 43 43 SW 5 7 29.78 1008 10 16 N/A
2:53 am 02:53 Cloudy 61 16.1 40 4.4 46 46 SSW 6 9 29.79 1009 10 16 N/A
3:53 am 03:53 Cloudy 62 16.7 42 5.6 48 48 SSW 7 11 29.79 1009 10 16 N/A
4:53 am 04:53 Cloudy 61 16.1 45 7.2 56 56 VRB 5 7 29.79 1009 10 16 N/A
5:53 am 05:53 Cloudy with Light Rain 60 15.6 51 10.6 72 72 SW 5 7 29.80 1009 6 10 0.01 0.25
6:06 am 06:06 Cloudy with Light Rain 58 14.4 52 11.1 81 81 SSW 6 9 29.82 1010 10 16 0.00 0.00
6:53 am 06:53 Cloudy with Light Rain 56 13.3 53 11.7 90 90 SW 5 7 29.83 1010 8 13 0.03 0.76
7:34 am 07:34 Cloudy with Light Rain 56 13.3 54 12.2 93 93 SSW 5 7 29.85 1011 10 16 0.03 0.76
7:53 am 07:53 Cloudy with Light Rain 56 13.3 54 12.2 93 93 SSW 5 7 29.84 1010 10 16 0.03 0.76
8:12 am 08:12 Cloudy with Light Rain 56 13.3 54 12.2 93 93 VRB 7 11 29.84 1011 9 14 0.00 0.00
8:53 am 08:53 Cloudy with Light Rain 56 13.3 54 12.2 93 93 SSW 6 9 29.84 1011 10 16 0.01 0.25
9:53 am 09:53 Cloudy 56 13.3 54 12.2 93 93 SW 6 9 29.84 1011 10 16 0.00 0.00
10:53 am 10:53 Cloudy 57 13.9 54 12.2 90 90 SSW 5 7 29.83 1010 10 16 N/A
11:53 am 11:53 Cloudy 57 13.9 54 12.2 90 90 VRB 6 9 29.81 1010 10 16 N/A
12:53 pm 12:53 Cloudy with Light Rain 57 13.9 54 12.2 90 90 SW 5 7 29.81 1010 5 8 0.01 0.25
1:49 pm 13:49 Cloudy with Light Rain 57 14 55 13 94 94 VRB 3 6 29.79 1009 4 6 0.03 0.76
1:53 pm 13:53 Cloudy with Light Rain 57 13.9 55 12.8 93 93 SSW 5 7 29.78 1009 4 6 0.04 1.02
2:53 pm 14:53 Cloudy with Light Rain 57 13.9 55 12.8 93 93 N N/A 29.78 1009 9 14 0.02 0.51
3:27 pm 15:27 Cloudy with Light Rain 56 13.3 55 12.8 97 97 N N/A 29.79 1009 3 5 0.03 0.76
3:41 pm 15:41 Cloudy with Light Rain 50 10 48 8.9 93 93 N 16 26 29.81 1009 4 6 0.05 1.27
3:53 pm 15:53 Cloudy with Light Rain 47 8.3 45 7.2 93 93 N 15 24 29.81 1010 4 6 0.06 1.52
4:44 pm 16:44 Cloudy with Light Rain 41 5 38 3.3 89 89 N 8 13 29.88 1012 9 14 0.02 0.51
4:53 pm 16:53 Cloudy with Light Rain 40 4.4 38 3.3 93 93 N 9 15 29.86 1011 5 8 0.03 0.76
5:09 pm 17:09 Cloudy with Light Rain 40 4.4 37 2.8 89 89 NNE 8 13 29.88 1012 3 5 0.02 0.51
5:53 pm 17:53 Cloudy with Light Rain 39 3.9 36 2.2 89 89 N 7 11 29.88 1012 10 16 0.05 1.27
6:25 pm 18:25 Cloudy with Light Rain 38 3.3 36 2.2 93 93 NNE 8 13 29.93 1013 10 16 0.00 0.00
6:53 pm 18:53 Cloudy with Light Rain 38 3.3 36 2.2 93 93 N 9 15 29.92 1013 5 8 0.00 0.00
7:53 pm 19:53 Cloudy with Light Rain 37 2.8 34 1.1 89 89 NNE 15 24 29.94 1014 10 16 0.03 0.76
8:53 pm 20:53 Cloudy with Light Rain 37 2.8 33 0.6 86 86 NNE 12 19 29.96 1015 10 16 0.01 0.25
9:53 pm 21:53 Cloudy with Light Rain 36 2.2 33 0.6 89 89 N 9 15 29.99 1016 10 16 0.02 0.51
10:53 pm 22:53 Cloudy 35 1.7 32 undefined 89 89 NNE 13 20 29.99 1016 10 16 0.00 0.00
11:03 pm 23:03 Cloudy 35 1.7 32 undefined 89 89 NNE 10 17 30.02 1017 10 16 N/A
11:27 pm 23:27 Cloudy 35 1.7 31 -0.6 85 85 NNE 15 24 30.02 1017 10 16 N/A
11:53 pm 23:53 Cloudy 34 1.1 30 -1.1 85 85 NE 14 22 30.00 1016 9 14 N/A

Powered by AerisWeather